Content
SEND FEEDBACK

Daily
Averages
Monthly
Summary
Brazil

TERESINA, PIAUI


Home > South America > Brazil > Piaui
Elevation: 99 meters     Latitude: 05 03S     Longitude: 042 48W

WEATHER
 
SELECT A DAY
Number of Records: 163,653;   Date Range: 6/30/96 - 7/23/14
 
SHARE

PRINT THIS DATA

[ ← Previous Day ]
WEATHER ALMANAC - 12 OCTOBER, 2013
[ Next Day → ]
[ °F ]   °C
Weather ElementAverageHighLow
Temperature32.7 °C38 °C (3:00 pm)27 °C (3:00 am)
Dewpoint16.8 °C21 °C (3:00 am)13 °C (4:00 pm)
Humidity39.7 %70 % (3:00 am)17 % (3:00 pm)
Barometer1009.5 hPa1012.5 hPa (9:00 am)1006.1 hPa (5:00 pm)
Wind Speed6.6 km/h16.7 km/h (8:00 am)
Weather ElementAverage
Visibility12.7 km
Wind DirectionSSE (158.5 °)

Weather ElementTotal
Precipitation---
Cooling Degree Days14.2 (Base 18.3)
Growing Degree Days22.5 (Base 10)
Averaged from 27 records on 12 October, 2013
WEATHER CONDITIONS BREAKOUT
WIND DIRECTION BREAKOUT
WEATHER BY HOUR - 12 OCTOBER, 2013
[ °F ]   °C
Local TimeTemperatureDewpointHumidityBarometerVisibilityWind DirectionWind SpeedGust SpeedPrecipitationEventsConditions
1:00 AM30 °C18 °C48 %1010.2 hPaNorth (350°)3.7 km/hClear
2:00 AM28 °C20 °C62 %1009.1 hPaNNW (330°)3.7 km/hClear
3:00 AM27.2 °C20.6 °C59 %1009.8 hPa19.3 kmNorth3.7 km/h
3:00 AM27 °C21 °C70 %1010.2 hPaNorth (360°)3.7 km/hClear
4:00 AM27 °C20 °C65 %1010.2 hPaCalmClear
5:00 AM27 °C21 °C70 %1010.2 hPaCalmClear
6:00 AM27 °C20 °C65 %1011.2 hPaSouth (170°)3.7 km/hClear
7:00 AM29 °C17 °C48 %1012.2 hPaSSE (150°)14.8 km/hClear
8:00 AM30 °C17 °C45 %1012.2 hPaSE (130°)16.7 km/hClear
9:00 AM31.7 °C17.2 °C32 %1012.5 hPa19.3 kmSSE (160°)14.8 km/hScattered Clouds
9:00 AM32 °C17 °C40 %1012.2 hPa10 kmSSE (160°)14.8 km/hPartly Cloudy
10:00 AM33 °C17 °C38 %1012.2 hPa10 kmESE (120°)3.7 km/hScattered Clouds
11:00 AM35 °C16 °C32 %1011.2 hPa10 kmESE (120°)9.3 km/hPartly Cloudy
12:00 PM36 °C16 °C30 %1010.2 hPa10 kmSSE (160°)11.1 km/hMostly Cloudy
1:00 PM37 °C16 °C29 %1009.1 hPa10 kmSouth (180°)7.4 km/hScattered Clouds
2:00 PM37 °C15 °C27 %1008.1 hPa10 kmSSE (160°)7.4 km/hScattered Clouds
3:00 PM37.8 °C15 °C17 %1007.1 hPa19.3 kmSSW (200°)7.4 km/hPartly Cloudy
3:00 PM38 °C15 °C25 %1007.1 hPa10 kmSSW (200°)7.4 km/hScattered Clouds
4:00 PM38 °C13 °C22 %1007.1 hPa10 kmSSE (150°)3.7 km/hScattered Clouds
5:00 PM38 °C13 °C22 %1006.1 hPa10 kmSSE (150°)3.7 km/hPartly Cloudy
6:00 PM37 °C13 °C24 %1007.1 hPa10 kmSE (140°)1.9 km/hPartly Cloudy
7:00 PM35 °C15 °C30 %1007.1 hPaSSW (200°)1.9 km/hClear
8:00 PM33 °C16 °C36 %1008.1 hPaSouth (190°)3.7 km/hClear
9:00 PM34.4 °C14.4 °C21 %1009.5 hPa19.3 kmSouth (170°)9.3 km/hMostly Cloudy
9:00 PM35 °C15 °C30 %1009.1 hPaSouth (170°)9.3 km/hClear
10:00 PM32 °C17 °C40 %1010.2 hPaNNE (30°)9.3 km/hClear
11:00 PM31 °C18 °C46 %1010.2 hPaSE (130°)1.9 km/hClear
Hourly data recorded from SBTE, located 0 kilometers away from Teresina, Piaui







STORIES FROM OUR PARTNERS